{"data":{"norad_id":68255,"intl_designator":"2026-054Z","name":"STARLINK-37075","alt_names":[],"object_type":"PAYLOAD","status":"ACTIVE","operator":null,"country":"US","launch_date":"2026-03-17","launch_site_code":"AFETR","launch_vehicle":null,"mission":null,"orbit_class":"UNKNOWN","rcs_meters":null,"size_class":null,"mass_kg":null,"dimensions":null,"purposes":["comms"],"wikipedia_slug":null,"has_3d_model":false,"image_url":null,"decayed_at":null,"tle_current":{"epoch":"2026-05-25T03:34:27.698880Z","epoch_age_seconds":62266,"freshness":"FRESH","line1":"1 68255U 26054Z   26145.14893170  .00028513  00000+0  66150-3 0  9993","line2":"2 68255  53.1595 299.2184 0001435  85.4294 274.6876 15.42193522 10731","mean_motion":15.42193522,"eccentricity":0.0001435,"inclination_deg":53.1595,"raan_deg":299.2184,"arg_perigee_deg":85.4294,"mean_anomaly_deg":274.6876,"bstar":0.0006615,"rev_number":1073,"period_min":93.373495573534,"perigee_km":438.65850467247,"apogee_km":440.61520576892,"semimajor_km":6817.7738552207,"source":"CELESTRAK","updated_at":"2026-05-25T13:38:21.887963Z"}}}